TimeCDT,TemperatureF,Dew PointF,Humidity,Sea Level PressureIn,VisibilityMPH,Wind Direction,Wind SpeedMPH,Gust SpeedMPH,PrecipitationIn,Events,Conditions,WindDirDegrees,DateUTC
12:15 AM,60.8,51.8,72,30.00,10.0,Calm,Calm,-,N/A,,Partly Cloudy,0,2013-10-19 05:15:00
12:35 AM,59.0,51.8,77,29.99,10.0,North,4.6,-,N/A,,Scattered Clouds,10,2013-10-19 05:35:00
12:55 AM,59.0,51.8,77,29.99,10.0,NNE,3.5,-,N/A,,Partly Cloudy,30,2013-10-19 05:55:00
1:15 AM,59.0,51.8,77,29.99,10.0,North,4.6,-,N/A,,Clear,360,2013-10-19 06:15:00
1:35 AM,57.2,53.6,88,29.98,10.0,NNE,5.8,-,N/A,,Partly Cloudy,20,2013-10-19 06:35:00
1:55 AM,57.2,51.8,82,29.99,10.0,NNE,3.5,-,N/A,,Clear,20,2013-10-19 06:55:00
2:15 AM,57.2,51.8,82,29.97,10.0,NE,5.8,-,N/A,,Partly Cloudy,50,2013-10-19 07:15:00
2:35 AM,57.2,51.8,82,29.97,10.0,NNE,3.5,-,N/A,,Mostly Cloudy,30,2013-10-19 07:35:00
2:55 AM,57.2,51.8,82,29.97,10.0,Calm,Calm,-,N/A,,Mostly Cloudy,0,2013-10-19 07:55:00
3:15 AM,59.0,51.8,77,29.98,10.0,NNE,4.6,-,N/A,,Mostly Cloudy,20,2013-10-19 08:15:00
3:35 AM,57.2,51.8,82,29.98,10.0,North,5.8,-,N/A,,Mostly Cloudy,360,2013-10-19 08:35:00
3:55 AM,57.2,51.8,82,29.97,10.0,North,5.8,-,N/A,,Mostly Cloudy,360,2013-10-19 08:55:00
4:15 AM,57.2,51.8,82,29.97,10.0,NNE,5.8,-,N/A,,Scattered Clouds,20,2013-10-19 09:15:00
4:35 AM,57.2,51.8,82,29.97,10.0,North,6.9,-,N/A,,Partly Cloudy,10,2013-10-19 09:35:00
4:55 AM,57.2,51.8,82,29.97,10.0,NNE,5.8,-,N/A,,Partly Cloudy,30,2013-10-19 09:55:00
5:15 AM,57.2,51.8,82,29.97,10.0,North,4.6,-,N/A,,Mostly Cloudy,10,2013-10-19 10:15:00
5:35 AM,57.2,51.8,82,29.98,10.0,North,4.6,-,0.01,,Scattered Clouds,360,2013-10-19 10:35:00
5:55 AM,55.4,53.6,94,29.98,10.0,North,6.9,-,0.01,,Mostly Cloudy,350,2013-10-19 10:55:00
6:15 AM,55.4,53.6,94,29.98,10.0,North,4.6,-,0.01,,Mostly Cloudy,360,2013-10-19 11:15:00
6:35 AM,55.4,53.6,94,29.99,10.0,North,4.6,-,0.02,,Clear,360,2013-10-19 11:35:00
6:55 AM,55.4,53.6,94,29.99,10.0,ENE,3.5,-,0.02,,Clear,60,2013-10-19 11:55:00
7:15 AM,55.4,53.6,94,29.99,10.0,NE,3.5,-,N/A,,Scattered Clouds,50,2013-10-19 12:15:00
7:35 AM,55.4,53.6,94,29.98,10.0,Calm,Calm,-,0.01,,Scattered Clouds,0,2013-10-19 12:35:00
7:55 AM,55.4,53.6,94,29.98,10.0,Calm,Calm,-,0.02,,Partly Cloudy,0,2013-10-19 12:55:00
8:15 AM,55.4,53.6,94,29.99,10.0,Calm,Calm,-,N/A,,Mostly Cloudy,0,2013-10-19 13:15:00
8:35 AM,57.2,53.6,88,30.00,10.0,Calm,Calm,-,N/A,,Partly Cloudy,0,2013-10-19 13:35:00
8:55 AM,59.0,55.4,88,30.01,10.0,NNW,3.5,-,N/A,,Mostly Cloudy,330,2013-10-19 13:55:00
9:15 AM,60.8,51.8,72,30.00,10.0,Calm,Calm,-,N/A,,Mostly Cloudy,0,2013-10-19 14:15:00
9:35 AM,60.8,51.8,72,30.01,10.0,WSW,3.5,-,N/A,,Overcast,240,2013-10-19 14:35:00
9:55 AM,60.8,53.6,77,30.02,10.0,West,3.5,-,N/A,,Overcast,270,2013-10-19 14:55:00
10:15 AM,60.8,51.8,72,30.02,10.0,WNW,4.6,-,N/A,,Overcast,290,2013-10-19 15:15:00
10:35 AM,60.8,51.8,72,30.03,10.0,West,6.9,-,N/A,,Overcast,280,2013-10-19 15:35:00
10:55 AM,60.8,51.8,72,30.02,10.0,West,4.6,-,N/A,,Overcast,260,2013-10-19 15:55:00
11:15 AM,60.8,51.8,72,30.02,10.0,WNW,6.9,-,N/A,,Overcast,290,2013-10-19 16:15:00
11:35 AM,60.8,53.6,77,30.01,10.0,SW,3.5,-,N/A,,Overcast,230,2013-10-19 16:35:00
11:55 AM,59.0,53.6,82,30.01,10.0,SW,6.9,-,N/A,,Mostly Cloudy,230,2013-10-19 16:55:00
12:15 PM,59.0,55.4,88,30.01,10.0,West,4.6,-,N/A,,Mostly Cloudy,260,2013-10-19 17:15:00
12:35 PM,59.0,55.4,88,30.01,10.0,SW,4.6,-,0.01,,Scattered Clouds,230,2013-10-19 17:35:00
12:55 PM,59.0,55.4,88,29.98,10.0,SW,4.6,-,0.01,,Scattered Clouds,220,2013-10-19 17:55:00
1:15 PM,59.0,55.4,88,29.98,10.0,SW,5.8,-,0.02,,Overcast,230,2013-10-19 18:15:00
1:35 PM,59.0,55.4,88,29.98,10.0,WSW,4.6,-,0.02,,Overcast,250,2013-10-19 18:35:00
1:55 PM,59.0,55.4,88,29.97,10.0,West,3.5,-,0.02,,Overcast,280,2013-10-19 18:55:00
2:15 PM,60.8,55.4,82,29.98,10.0,West,8.1,-,N/A,,Overcast,270,2013-10-19 19:15:00
2:35 PM,60.8,55.4,82,29.97,10.0,WNW,6.9,-,N/A,,Mostly Cloudy,300,2013-10-19 19:35:00
2:55 PM,60.8,55.4,82,29.97,10.0,WNW,9.2,-,N/A,,Mostly Cloudy,300,2013-10-19 19:55:00
3:15 PM,60.8,55.4,82,29.97,10.0,WNW,4.6,-,N/A,,Scattered Clouds,300,2013-10-19 20:15:00
3:35 PM,60.8,55.4,82,29.97,10.0,NNW,5.8,-,N/A,,Clear,330,2013-10-19 20:35:00
3:55 PM,60.8,55.4,82,29.97,10.0,WNW,4.6,-,N/A,,Partly Cloudy,300,2013-10-19 20:55:00
4:15 PM,60.8,53.6,77,29.97,10.0,NW,6.9,-,N/A,,Scattered Clouds,320,2013-10-19 21:15:00
4:35 PM,60.8,53.6,77,29.98,10.0,NW,6.9,-,N/A,,Mostly Cloudy,320,2013-10-19 21:35:00
4:55 PM,60.8,53.6,77,29.98,10.0,Calm,Calm,-,N/A,,Overcast,0,2013-10-19 21:55:00
5:15 PM,60.8,53.6,77,29.98,10.0,NNW,3.5,-,N/A,,Overcast,330,2013-10-19 22:15:00
5:35 PM,60.8,53.6,77,29.98,10.0,NNW,4.6,-,N/A,,Overcast,340,2013-10-19 22:35:00
5:55 PM,60.8,53.6,77,29.99,10.0,NNW,4.6,-,N/A,,Overcast,340,2013-10-19 22:55:00
6:15 PM,60.8,53.6,77,29.99,10.0,NNW,4.6,-,N/A,,Overcast,330,2013-10-19 23:15:00
6:35 PM,59.0,53.6,82,29.98,10.0,Calm,Calm,-,N/A,,Mostly Cloudy,0,2013-10-19 23:35:00
6:55 PM,57.2,53.6,88,29.98,10.0,Calm,Calm,-,N/A,,Mostly Cloudy,0,2013-10-19 23:55:00
7:15 PM,57.2,53.6,88,29.98,10.0,Calm,Calm,-,N/A,,Partly Cloudy,0,2013-10-20 00:15:00
7:35 PM,57.2,53.6,88,29.99,10.0,Calm,Calm,-,N/A,,Clear,0,2013-10-20 00:35:00
7:55 PM,57.2,53.6,88,29.98,10.0,Calm,Calm,-,N/A,,Clear,0,2013-10-20 00:55:00
8:15 PM,57.2,53.6,88,29.99,10.0,Calm,Calm,-,N/A,,Clear,0,2013-10-20 01:15:00
8:35 PM,55.4,53.6,94,29.99,10.0,Calm,Calm,-,N/A,,Clear,0,2013-10-20 01:35:00
8:55 PM,55.4,53.6,94,29.99,10.0,Calm,Calm,-,N/A,,Clear,0,2013-10-20 01:55:00
9:15 PM,55.4,53.6,94,30.00,10.0,Calm,Calm,-,N/A,,Clear,0,2013-10-20 02:15:00
9:35 PM,55.4,53.6,94,30.00,10.0,Calm,Calm,-,N/A,,Clear,0,2013-10-20 02:35:00
9:55 PM,55.4,53.6,94,30.00,10.0,Calm,Calm,-,N/A,,Clear,0,2013-10-20 02:55:00
10:15 PM,55.4,53.6,94,30.00,9.0,Calm,Calm,-,N/A,,Clear,0,2013-10-20 03:15:00
10:35 PM,55.4,53.6,94,30.01,10.0,Calm,Calm,-,N/A,,Clear,0,2013-10-20 03:35:00
10:55 PM,55.4,53.6,94,30.01,10.0,Calm,Calm,-,N/A,,Clear,0,2013-10-20 03:55:00
11:15 PM,53.6,51.8,94,30.01,9.0,Calm,Calm,-,N/A,,Clear,0,2013-10-20 04:15:00
11:35 PM,53.6,51.8,94,30.01,10.0,Calm,Calm,-,N/A,,Clear,0,2013-10-20 04:35:00
11:55 PM,53.6,51.8,94,30.01,10.0,NW,4.6,-,N/A,,Clear,310,2013-10-20 04:55:00